Location: Csohesd
(46.2500°N, 22.6167°E)
Time: 06:10:51
(UTC+00:00)

Lacrosse 4 Rocket - Pass Details

Date: 21 October 2021
Orbit: 537 x 619 km, 68.0° (Epoch: 04 December)

Event Time Altitude Azimuth Distance (km) Brightness Sun altitude
Rises 18:54:36 0° 313° (NW) 2,820 5.8 -35.1°
Reaches altitude 10° 18:57:31 10° 292° (WNW) 1,931 4.9 -35.6°
Enters shadow 18:59:09 15° 271° (W) 1,631 4.3 -35.8°
